Regional Weather Roundup
Issued by NWS

Home | Current Version | Previous Version | Text Only | Print | Product List | Glossary Off
Versions: 1 2 3 4 5 6 7 8 9 10 11 12 13 14 15 16 17 18 19 20 21 22 23 24 25 26 27 28 29 30 31 32 33 34 35 36 37 38 39 40 41 42 43 44 45 46 47 48 49 50

000
ASUS43 KLSX 231007
RWRMO

WEATHER SUMMARY FOR MISSOURI
NATIONAL WEATHER SERVICE SPRINGFIELD MO
400 AM CST THU FEB 23 2017

NOTE: "FAIR" INDICATES FEW OR NO CLOUDS BELOW 12,000 FEET WITH NO
       SIGNIFICANT WEATHER AND/OR OBSTRUCTIONS TO VISIBILITY.
       CURRENT SKY AND/OR WEATHER CONDITIONS ARE NOT AVAILABLE FOR
       CHILLICOTHE AND FARMINGTON.

MOZ001>031-035>038-043-044-053-054-231100-
...NORTHERN AND WESTERN MISSOURI...

CITY           SKY/WX    TMP DP  RH WIND       PRES   REMARKS
KANSAS CTY INT CLOUDY    50  40  68 NE15      29.69F
KANSAS C DTWN  CLOUDY    53  40  61 NE15      29.68F
LEE`S SUMMIT   CLOUDY    53  40  61 NE14      29.70F
ST JOSEPH      CLOUDY    49  40  71 NE12      29.71F
CHILLICOTHE      N/A     49  42  77 NE10G16   29.71F
KIRKSVILLE     CLOUDY    44  40  85 N9        29.74F

$$
MOZ066>068-077>081-088>096-101>105-231100-
...SOUTHWEST MISSOURI...

CITY           SKY/WX    TMP DP  RH WIND       PRES   REMARKS
SPRINGFIELD    FOG       53  53 100 SE10      29.67F VSB 1/2
JOPLIN         CLEAR     58  54  86 S12       29.64F
BRANSON        FOG       52  52 100 SE7       29.71F VSB<1/4

$$
MOZ032>034-039>042-045>050-055>058-069>072-231100-
...CENTRAL MISSOURI...

CITY           SKY/WX    TMP DP  RH WIND       PRES   REMARKS
COLUMBIA       FOG       49  49 100 E7        29.70F VSB 1/2
JEFFERSON CITY FOG       45  45 100 CALM      29.71S VSB 1/2
ROLLA          FOG       52  52 100 S6        29.69F VSB 1/2
SEDALIA        PTCLDY    50  49  96 NE7       29.69F
WHITEMAN AFB   MOCLDY    49  47  94 NE10      29.67F
OSAGE BEACH    MOCLDY    52  51  97 SE6       29.70S

$$
MOZ051-052-059>065-231100-
...EAST CENTRAL MISSOURI...

CITY           SKY/WX    TMP DP  RH WIND       PRES   REMARKS
ST LOUIS INTL  PTCLDY    53  49  86 CALM      29.73R
SPIRIT OF STL  CLEAR     51  51 100 CALM      29.72R
ST CHARLES     FOG       45  45 100 SE6       29.72S VSB 1/4

$$
MOZ072>076-082>087-097>100-106>115-231100-
...SOUTH CENTRAL AND SOUTHEAST MISSOURI...

CITY           SKY/WX    TMP DP  RH WIND       PRES   REMARKS
CAPE GIRARDEAU CLEAR     54  52  93 S5        29.76F
FARMINGTON     CLEAR     55  52  89 S5        29.75S
POPLAR BLUFF   FOG       49  49 100 CALM      29.76S VSB 1/4
WEST PLAINS    FOG       52  51  97 S3        29.75S VSB 1/4

$$


USA.gov is the U.S. government's official web portal to all federal, state and local government web resources and services.